Hourly Data Report for November 13, 2019

All times are specified in Local Standard Time (LST). Add 1 hour to adjust for Daylight Saving Time where and when it is observed.

CHESTERFIELD INLET A
NUNAVUT
Current Station Operator: NAVCAN

63°20'50.000" N
90°43'52.000" W
9.80 m
2300710
YCS

Download Data

Hourly Data (November 2019)
Hourly Data Report for November 13, 2019
TIME Temp Definition
°C
Dew Point Definition
°C
Rel Hum Definition
%
Wind Dir Definition
10's deg

Wind Spd Definition
km/h
Visibility Definition
km
Stn Press Definition
kPa
Hmdx Definition


Wind Chill Definition


Weather Definition


00:00 -11.2 -13.0 87 26 7 LegendMM 100.21   -15 LegendNANA
01:00 -11.4 -13.3 86 24 12 LegendMM 100.21   -18 LegendNANA
02:00 -12.1 -14.2 85 26 9 LegendMM 100.26   -17 LegendNANA
03:00 -14.2 -16.4 83 30 8 LegendMM 100.28   -19 LegendNANA
04:00 -15.5 -18.0 81 29 14 LegendMM 100.28   -23 LegendNANA
05:00 -16.6 -19.0 82 28 16 LegendMM 100.32   -25 LegendNANA
06:00 -15.8 -17.9 84 28 20 LegendMM 100.31   -25 LegendNANA
07:00 -15.3 -17.6 83 28 20 LegendMM 100.34   -25 LegendNANA
08:00 -15.8 -18.0 83 28 23 LegendMM 100.36   -26 LegendNANA
09:00 -15.3 -17.5 84 28 25 LegendMM 100.38   -26 LegendNANA
10:00 -14.5 -16.6 84 28 24 LegendMM 100.38   -24 LegendNANA
11:00 -13.5 -15.7 83 27 22 LegendMM 100.40   -23 LegendNANA
12:00 -14.2 -16.9 80 27 28 LegendMM 100.36   -25 LegendNANA
13:00 -14.1 -16.4 83 28 26 LegendMM 100.34   -24 LegendNANA
14:00 -14.3 -16.6 83 28 30 LegendMM 100.37   -25 LegendNANA
15:00 -14.8 -17.2 82 29 34 LegendMM 100.35   -26 LegendNANA
16:00 -15.7 -18.2 81 28 37 LegendMM 100.34   -28 LegendNANA
17:00 -16.8 -19.3 81 28 40 LegendMM 100.33   -30 LegendNANA
18:00 -17.7 -20.3 81 29 40 LegendMM 100.29   -31 LegendNANA
19:00 -18.5 -21.1 80 28 37 LegendMM 100.24   -32 LegendNANA
20:00 -20.3 -23.2 78 28 41 LegendMM 100.19   -35 LegendNANA
21:00 -21.6 -24.6 77 28 34 LegendMM 100.16   -35 LegendNANA
22:00 -23.2 -26.4 76 28 37 LegendMM 100.08   -38 LegendNANA
23:00 -23.2 -26.1 77 28 39 LegendMM 100.03   -38 LegendNANA

Notes on Data Quality.

Legend

  • E = Estimated
  • M = Missing
  • NA = Not Available
Date modified: